WZZ175 OBBI-OMDB

Flight info

Callsign WZZ175
Flight time N/A
Altitude 25000
Route RAZAN DCT LUBET DCT VELAM P708 VUTAN N318 ALSEM L305 KIVUS P559 AMBOV Q322 DATOB DCT REREK DCT EMUNI
Aircraft A20N/M-SDE2E3FGHIRWXY/LB1

Departure

Time 2026-03-20 09:57
Airport Bahrain International Airport (OBBI)

Arrival

Time N/A
Airport Dubai International Airport (OMDB)
Time Latitude Longitude Altitude Speed Heading
2026-03-20 09:42 26.26892 50.62944 17 ft 0 kts 212°
2026-03-20 09:49 26.26902 50.62951 19 ft 3 kts 212°
2026-03-20 09:50 26.26918 50.62962 17 ft 3 kts 212°
2026-03-20 09:50 26.26933 50.62972 18 ft 3 kts 212°
2026-03-20 09:50 26.26948 50.62983 19 ft 3 kts 212°
2026-03-20 09:50 26.26961 50.62994 20 ft 2 kts 257°
2026-03-20 09:51 26.26962 50.63007 19 ft 0 kts 306°
2026-03-20 09:53 26.26991 50.62961 18 ft 12 kts 303°
2026-03-20 09:53 26.27065 50.62888 18 ft 15 kts
2026-03-20 09:53 26.27168 50.62878 18 ft 18 kts 306°
2026-03-20 09:54 26.27249 50.62735 18 ft 26 kts 302°
2026-03-20 09:54 26.27362 50.62542 20 ft 33 kts 303°
2026-03-20 09:54 26.27496 50.62309 19 ft 36 kts 303°
2026-03-20 09:54 26.27621 50.62096 17 ft 27 kts 305°
2026-03-20 09:55 26.27731 50.61911 19 ft 31 kts 303°
2026-03-20 09:55 26.27842 50.61715 19 ft 25 kts 303°
2026-03-20 09:55 26.27935 50.61651 19 ft 0 kts 359°
2026-03-20 09:56 26.27946 50.61652 19 ft 4 kts
2026-03-20 09:56 26.27986 50.61668 19 ft 9 kts 27°
2026-03-20 09:56 26.28028 50.61713 19 ft 6 kts 80°
2026-03-20 09:56 26.28005 50.61772 21 ft 12 kts 122°
2026-03-20 09:57 26.27942 50.61883 19 ft 33 kts 122°
2026-03-20 09:57 26.27710 50.62279 18 ft 94 kts 122°
2026-03-20 09:57 26.27194 50.63140 39 ft 167 kts 128°
2026-03-20 09:57 26.26600 50.64159 812 ft 168 kts 129°
2026-03-20 09:58 26.25943 50.65206 1776 ft 164 kts 131°
2026-03-20 09:58 26.25233 50.66329 2275 ft 194 kts 130°
2026-03-20 09:58 26.24403 50.67671 2658 ft 223 kts 128°
2026-03-20 09:58 26.23520 50.69171 3251 ft 241 kts 127°
2026-03-20 09:59 26.22607 50.70776 3993 ft 252 kts 126°
2026-03-20 09:59 26.21678 50.72448 4861 ft 256 kts 124°
2026-03-20 09:59 26.20738 50.74149 5558 ft 259 kts 124°
2026-03-20 09:59 26.19810 50.75822 6295 ft 259 kts 124°
2026-03-20 10:00 26.18912 50.77428 6930 ft 262 kts 125°
2026-03-20 10:00 26.18095 50.79269 7545 ft 271 kts 111°
2026-03-20 10:00 26.17808 50.81376 8125 ft 282 kts 90°
2026-03-20 10:00 26.18044 50.83570 8773 ft 289 kts 80°
2026-03-20 10:01 26.18526 50.85767 9398 ft 296 kts 75°
2026-03-20 10:01 26.19148 50.87977 10008 ft 302 kts 72°
2026-03-20 10:01 26.19840 50.90245 10392 ft 318 kts 71°
2026-03-20 10:01 26.20596 50.92704 10317 ft 354 kts 72°
2026-03-20 10:02 26.21390 50.95354 10066 ft 372 kts 72°
2026-03-20 10:02 26.22119 50.97865 9985 ft 375 kts 73°
2026-03-20 10:02 26.22862 51.00481 9982 ft 363 kts 73°
2026-03-20 10:02 26.23448 51.03147 9991 ft 352 kts 83°
2026-03-20 10:03 26.23566 51.05790 9981 ft 363 kts 96°
2026-03-20 10:03 26.23094 51.08476 9979 ft 341 kts 112°
2026-03-20 10:03 26.22220 51.10864 9991 ft 335 kts 119°
2026-03-20 10:03 26.21140 51.13239 9978 ft 344 kts 122°
2026-03-20 10:04 26.20011 51.15494 9987 ft 324 kts 124°
2026-03-20 10:04 26.18925 51.17570 9983 ft 343 kts 124°
2026-03-20 10:04 26.17723 51.19841 9982 ft 330 kts 124°
2026-03-20 10:04 26.16588 51.22016 9991 ft 331 kts 124°
2026-03-20 10:05 26.15392 51.24300 9978 ft 343 kts 124°